Temp
-6 -6 -6 -6 -6 -6 -6 -6 -6 -6 -5 -5 -5 -5 -4 -4 -4 -4 -3 -3 -4 -3 -4 -3 -3 -3 -3 -4 -3 -3 -3 -3 -3 -3 -3 -3 -4 -4 -4 -4 -4 -4 -4 -4 -4 -4 -3 -3 -3
-6 -6 -6 -6 -6 -6 -7 -6 -6 -6 -5 -5 -5 -5 -5 -4 -5 -4 -4 -3 -3 -3 -3 -4 -3 -4 -4 -4 -4 -3 -3 -3 -3 -3 -3 -3 -4 -4 -4 -4 -4 -4 -4 -4 -4 -4 -3 -3 -3
-6 -6 -6 -6 -6 -6 -8 -6 -6 -6 -6 -5 -5 -5 -4 -4 -5 -5 -4 -4 -4 -4 -3 -3 -3 -4 -4 -4 -4 -4 -3 -4 -3 -3 -3 -4 -4 -4 -4 -4 -4 -4 -4 -4 -4 -4 -3 -3 -3
-6 -6 -6 -6 -6 -6 -6 -6 -6 -6 -6 -6 -5 -5 -4 -4 -5 -5 -5 -5 -4 -4 -3 -3 -3 -3 -4 -4 -4 -4 -4 -4 -4 -4 -4 -4 -4 -4 -4 -4 -4 -4 -4 -4 -4 -4 -4 -4 -3
-6 -6 -6 -6 -6 -6 -6 -6 -6 -6 -6 -6 -6 -5 -5 -5 -4 -5 -4 -4 -4 -4 -4 -4 -4 -4 -4 -4 -4 -4 -4 -4 -4 -4 -4 -4 -4 -4 -4 -4 -5 -4 -4 -4 -4 -4 -4 -4 -4
-5 -5 -5 -5 -6 -5 -6 -6 -6 -6 -6 -6 -6 -7 -5 -5 -4 -4 -4 -4 -5 -4 -4 -4 -5 -4 -4 -4 -4 -5 -5 -5 -4 -4 -4 -5 -5 -5 -5 -5 -5 -5 -5 -5 -5 -4 -4 -4 -4
-5 -5 -5 -5 -5 -5 -5 -6 -6 -6 -6 -5 -5 -6 -6 -6 -5 -5 -4 -4 -5 -5 -5 -5 -5 -5 -5 -4 -5 -5 -5 -5 -5 -4 -5 -5 -5 -5 -5 -5 -5 -5 -5 -5 -5 -5 -5 -4 -4
-5 -6 -5 -5 -5 -6 -4 -5 -5 -6 -6 -6 -5 -5 -5 -5 -6 -6 -5 -4 -4 -5 -5 -5 -6 -6 -6 -5 -5 -6 -6 -6 -5 -5 -5 -5 -5 -6 -6 -6 -6 -6 -5 -5 -5 -5 -5 -4 -4
-6 -5 -6 -6 -6 -5 -4 -5 -5 -5 -6 -6 -6 -6 -5 -5 -5 -5 -6 -6 -5 -5 -5 -6 -6 -6 -6 -6 -6 -6 -6 -6 -6 -6 -5 -5 -5 -6 -6 -6 -6 -6 -6 -6 -6 -5 -5 -5 -5
-6 -6 -5 -5 -6 -6 -5 -5 -5 -6 -6 -6 -6 -6 -6 -5 -5 -5 -5 -5 -6 -6 -5 -5 -5 -6 -6 -6 -6 -6 -6 -6 -6 -6 -6 -6 -6 -6 -6 -6 -7 -6 -6 -6 -6 -6 -5 -5 -5
-6 -6 -5 -5 -5 -5 -5 -5 -5 -5 -5 -5 -6 -6 -6 -6 -6 -6 -5 -5 -6 -6 -6 -5 -5 -6 -6 -6 -6 -6 -6 -6 -6 -6 -6 -6 -6 -6 -6 -6 -7 -6 -6 -6 -6 -6 -6 -6 -5
-6 -5 -5 -5 -6 -5 -5 -5 -5 -5 -5 -5 -5 -5 -5 -6 -6 -6 -6 -6 -6 -6 -6 -6 -6 -6 -6 -6 -6 -6 -6 -6 -7 -7 -6 -6 -7 -7 -7 -7 -7 -7 -7 -7 -7 -6 -6 -6 -6
-6 -5 -6 -6 -6 -6 -6 -6 -5 -5 -5 -5 -5 -5 -5 -5 -6 -6 -6 -6 -6 -6 -6 -6 -6 -6 -6 -6 -7 -7 -7 -7 -7 -7 -7 -7 -7 -7 -7 -7 -7 -7 -7 -7 -7 -7 -7 -7 -7
-6 -6 -6 -6 -6 -6 -6 -6 -6 -6 -6 -5 -5 -6 -6 -6 -6 -6 -6 -6 -6 -6 -6 -6 -6 -6 -7 -7 -6 -7 -7 -7 -7 -7 -7 -7 -7 -7 -6 -6 -7 -7 -7 -7 -8 -8 -8 -7 -7
-7 -7 -7 -6 -6 -6 -6 -6 -6 -6 -6 -6 -6 -6 -6 -6 -7 -6 -6 -6 -6 -7 -7 -7 -6 -6 -6 -7 -7 -7 -7 -7 -7 -7 -7 -7 -7 -7 -7 -7 -7 -7 -7 -7 -7 -8 -8 -8 -7
-7 -7 -7 -6 -7 -7 -7 -7 -7 -7 -7 -7 -7 -7 -6 -6 -6 -7 -7 -7 -7 -7 -7 -7 -7 -7 -7 -7 -7 -7 -7 -7 -7 -7 -7 -7 -7 -7 -7 -7 -7 -7 -7 -7 -8 -8 -8 -8 -8
-8 -8 -8 -8 -8 -8 -8 -7 -8 -8 -8 -8 -8 -8 -7 -7 -7 -7 -7 -7 -7 -7 -7 -7 -7 -7 -8 -8 -8 -8 -8 -7 -7 -7 -8 -7 -7 -7 -7 -8 -8 -8 -8 -8 -8 -8 -8 -8 -8
-9 -9 -10 -10 -10 -10 -10 -9 -10 -10 -9 -9 -9 -8 -8 -8 -7 -7 -7 -7 -7 -7 -7 -8 -7 -7 -7 -8 -8 -8 -8 -8 -8 -8 -7 -8 -8 -8 -7 -8 -8 -8 -8 -8 -8 -8 -8 -8 -8
-11 -11 -11 -11 -11 -11 -10 -10 -11 -11 -11 -11 -11 -11 -10 -9 -9 -8 -7 -7 -8 -8 -8 -8 -8 -8 -8 -7 -8 -8 -8 -9 -9 -9 -8 -8 -8 -8 -8 -8 -8 -8 -8 -8 -9 -9 -8 -8 -8
-11 -11 -11 -11 -11 -11 -11 -11 -11 -12 -12 -13 -13 -13 -12 -12 -11 -11 -10 -9 -8 -8 -8 -9 -9 -9 -9 -9 -8 -8 -9 -9 -10 -10 -9 -9 -8 -8 -8 -9 -8 -8 -8 -8 -8 -8 -9 -9 -8
-11 -11 -11 -11 -12 -12 -12 -12 -12 -12 -12 -13 -13 -12 -12 -12 -13 -13 -13 -12 -11 -10 -10 -10 -10 -10 -10 -10 -10 -9 -9 -10 -9 -9 -10 -10 -9 -9 -9 -9 -9 -9 -8 -9 -8 -9 -9 -9 -9
-11 -12 -12 -13 -13 -13 -13 -12 -12 -12 -13 -13 -13 -13 -12 -12 -12 -13 -13 -13 -13 -13 -12 -12 -12 -11 -11 -11 -11 -10 -10 -10 -11 -11 -11 -10 -10 -9 -9 -9 -9 -10 -9 -9 -9 -9 -9 -9 -9
-12 -12 -13 -13 -14 -14 -14 -13 -12 -12 -13 -14 -14 -13 -13 -13 -13 -13 -13 -13 -13 -13 -14 -14 -14 -13 -12 -12 -12 -12 -11 -11 -11 -12 -11 -11 -10 -10 -9 -9 -9 -9 -9 -9 -9 -9 -9 -9 -9
-13 -13 -13 -13 -14 -13 -13 -13 -12 -13 -13 -14 -14 -14 -13 -13 -13 -13 -14 -14 -14 -14 -13 -13 -14 -14 -14 -13 -13 -13 -13 -13 -12 -12 -12 -12 -11 -10 -10 -10 -10 -9 -10 -9 -9 -9 -9 -9 -9
-13 -14 -14 -14 -15 -15 -13 -13 -13 -13 -14 -14 -14 -15 -14 -13 -13 -13 -13 -15 -15 -14 -14 -14 -14 -14 -14 -13 -13 -13 -13 -14 -14 -14 -13 -12 -11 -11 -10 -10 -10 -10 -10 -10 -10 -9 -9 -9 -9
-14 -15 -15 -15 -15 -15 -14 -13 -14 -14 -14 -14 -13 -14 -15 -15 -15 -15 -14 -14 -15 -15 -15 -15 -14 -14 -14 -14 -14 -14 -14 -14 -14 -14 -14 -13 -12 -12 -11 -11 -11 -11 -10 -10 -10 -10 -10 -9 -9
-15 -16 -16 -16 -15 -14 -14 -13 -13 -14 -14 -13 -13 -13 -14 -15 -15 -15 -15 -15 -15 -15 -16 -15 -15 -15 -14 -15 -14 -15 -15 -15 -14 -15 -14 -13 -12 -12 -12 -12 -12 -11 -11 -10 -10 -10 -10 -9 -9
-16 -16 -16 -16 -15 -15 -14 -15 -16 -15 -15 -15 -14 -14 -14 -15 -15 -16 -15 -15 -14 -15 -15 -15 -16 -16 -15 -15 -15 -15 -15 -15 -15 -15 -15 -15 -13 -12 -12 -12 -12 -12 -12 -11 -10 -10 -10 -10 -9
-16 -16 -16 -16 -16 -16 -15 -14 -16 -15 -15 -15 -15 -15 -15 -16 -16 -17 -17 -16 -16 -16 -16 -16 -16 -16 -16 -16 -16 -15 -15 -16 -16 -16 -16 -16 -15 -14 -13 -13 -12 -12 -12 -11 -11 -12 -11 -10 -10
-16 -17 -17 -17 -16 -16 -16 -13 -15 -15 -15 -15 -16 -16 -16 -16 -16 -17 -17 -17 -17 -17 -16 -16 -16 -16 -16 -16 -16 -16 -16 -16 -16 -18 -18 -17 -16 -15 -15 -14 -13 -12 -12 -12 -11 -11 -12 -11 -10
Height
5899 5901 5904 5905 5910 5909 5909 5908 5910 5912 5915 5918 5919 5920 5922 5920 5923 5924 5922 5921 5921 5920 5922 5922 5923 5924 5924 5925 5926 5927 5927 5926 5926 5925 5924 5924 5924 5925 5925 5926 5925 5924 5923 5922 5922 5921 5921 5920 5918
5896 5899 5901 5903 5906 5908 5909 5904 5907 5908 5911 5914 5917 5918 5919 5921 5920 5921 5921 5921 5920 5920 5922 5920 5921 5922 5922 5923 5924 5926 5926 5925 5925 5924 5924 5923 5924 5925 5925 5926 5925 5924 5923 5922 5921 5920 5920 5919 5918
5893 5896 5898 5900 5902 5904 5904 5902 5902 5905 5906 5908 5912 5913 5916 5919 5919 5919 5920 5920 5919 5919 5919 5921 5922 5922 5921 5921 5922 5924 5924 5924 5924 5924 5924 5924 5924 5925 5925 5925 5924 5923 5922 5921 5920 5919 5919 5918 5917
5891 5893 5895 5896 5899 5897 5899 5900 5899 5900 5903 5903 5906 5909 5912 5915 5917 5917 5917 5919 5919 5919 5918 5919 5921 5921 5920 5920 5922 5921 5922 5922 5923 5923 5923 5924 5924 5924 5925 5924 5924 5923 5921 5920 5919 5918 5917 5917 5916
5887 5888 5890 5894 5894 5892 5894 5897 5896 5896 5898 5900 5901 5903 5906 5910 5912 5914 5915 5915 5916 5917 5917 5918 5919 5919 5919 5919 5920 5920 5920 5921 5921 5921 5921 5922 5922 5922 5922 5923 5922 5922 5920 5919 5918 5918 5917 5916 5915
5882 5884 5886 5890 5889 5889 5889 5891 5893 5893 5894 5894 5896 5897 5899 5903 5908 5909 5911 5911 5912 5913 5914 5915 5916 5917 5917 5918 5918 5918 5918 5919 5919 5920 5920 5920 5920 5920 5920 5920 5920 5920 5920 5919 5917 5916 5916 5915 5914
5877 5879 5881 5884 5883 5884 5882 5885 5888 5890 5889 5888 5893 5893 5891 5893 5898 5903 5905 5906 5907 5908 5909 5911 5912 5913 5914 5915 5915 5916 5916 5917 5916 5917 5918 5918 5918 5919 5919 5919 5919 5919 5919 5918 5916 5915 5914 5913 5912
5873 5873 5874 5878 5879 5878 5877 5879 5882 5883 5884 5885 5886 5885 5887 5889 5890 5892 5896 5900 5901 5902 5903 5904 5906 5908 5909 5910 5911 5912 5913 5913 5914 5915 5915 5916 5916 5917 5917 5918 5917 5917 5917 5916 5914 5913 5912 5912 5910
5867 5867 5869 5871 5873 5870 5872 5873 5874 5877 5878 5878 5878 5880 5881 5884 5885 5886 5887 5888 5893 5896 5897 5899 5900 5903 5905 5906 5907 5908 5909 5911 5911 5912 5912 5913 5912 5913 5913 5914 5914 5914 5914 5914 5912 5911 5910 5909 5908
5862 5862 5859 5864 5865 5865 5865 5865 5865 5867 5868 5871 5870 5872 5873 5876 5877 5879 5881 5881 5882 5885 5889 5892 5894 5896 5898 5900 5901 5903 5904 5906 5908 5908 5908 5908 5909 5909 5909 5909 5910 5911 5911 5911 5910 5908 5908 5907 5906
5855 5853 5853 5856 5858 5860 5859 5858 5855 5858 5861 5862 5864 5865 5866 5869 5869 5870 5871 5873 5874 5875 5878 5882 5887 5889 5891 5892 5895 5897 5898 5900 5902 5903 5903 5903 5903 5904 5904 5904 5905 5905 5906 5906 5906 5905 5904 5903 5903
5847 5846 5847 5846 5848 5848 5849 5849 5849 5848 5850 5852 5854 5855 5857 5859 5861 5862 5863 5863 5866 5867 5869 5871 5876 5881 5883 5885 5888 5890 5893 5894 5896 5897 5898 5898 5898 5899 5899 5900 5901 5901 5901 5901 5901 5901 5900 5899 5898
5838 5838 5837 5836 5836 5838 5839 5840 5840 5839 5838 5839 5840 5842 5844 5845 5849 5851 5853 5856 5856 5858 5860 5862 5865 5869 5874 5878 5881 5883 5886 5889 5889 5891 5892 5892 5893 5893 5894 5894 5895 5895 5896 5896 5897 5897 5896 5895 5895
5831 5828 5826 5825 5824 5825 5826 5828 5828 5828 5828 5827 5827 5829 5831 5833 5834 5837 5841 5843 5845 5848 5850 5852 5855 5859 5862 5866 5872 5875 5878 5881 5882 5884 5885 5886 5887 5887 5888 5889 5890 5891 5890 5891 5891 5892 5891 5890 5890
5819 5818 5816 5814 5812 5812 5812 5814 5813 5814 5816 5817 5815 5813 5815 5818 5820 5821 5824 5828 5832 5835 5837 5840 5843 5847 5851 5855 5859 5865 5869 5872 5875 5877 5878 5880 5881 5882 5883 5883 5886 5887 5886 5887 5887 5887 5887 5886 5885
5810 5808 5805 5801 5803 5799 5799 5800 5797 5796 5798 5800 5801 5801 5801 5802 5805 5808 5808 5810 5816 5819 5824 5826 5830 5833 5837 5841 5846 5852 5856 5861 5865 5867 5870 5873 5874 5875 5876 5878 5880 5881 5882 5882 5882 5883 5883 5882 5881
5799 5797 5794 5792 5789 5789 5785 5786 5783 5779 5778 5781 5783 5784 5786 5788 5787 5789 5790 5794 5796 5800 5806 5811 5815 5819 5824 5828 5831 5836 5843 5848 5853 5857 5859 5863 5865 5866 5869 5871 5873 5875 5875 5877 5878 5878 5878 5877 5877
5787 5785 5782 5780 5776 5776 5775 5774 5769 5762 5761 5761 5760 5761 5767 5770 5773 5773 5774 5777 5778 5781 5785 5790 5796 5802 5807 5813 5817 5822 5828 5834 5839 5847 5850 5853 5856 5858 5860 5862 5865 5867 5868 5869 5871 5872 5871 5871 5871
5777 5775 5773 5770 5766 5765 5763 5763 5757 5752 5747 5745 5743 5743 5743 5746 5752 5750 5754 5754 5759 5763 5766 5770 5776 5782 5788 5795 5801 5807 5815 5822 5827 5833 5838 5841 5844 5847 5850 5853 5857 5859 5861 5861 5862 5862 5864 5865 5865
5767 5765 5763 5759 5755 5751 5751 5754 5745 5741 5739 5733 5732 5731 5732 5731 5731 5729 5730 5732 5738 5743 5748 5751 5755 5762 5769 5776 5783 5790 5797 5804 5809 5815 5821 5826 5831 5835 5841 5844 5847 5850 5852 5853 5852 5853 5856 5857 5858
5758 5754 5753 5749 5744 5739 5737 5744 5736 5733 5728 5725 5723 5722 5720 5719 5718 5716 5717 5717 5719 5721 5726 5731 5738 5742 5748 5757 5764 5770 5777 5784 5792 5800 5808 5816 5820 5825 5828 5833 5836 5840 5842 5845 5844 5847 5849 5849 5850
5747 5742 5739 5737 5733 5733 5728 5728 5728 5726 5719 5716 5714 5711 5709 5707 5705 5705 5704 5704 5705 5706 5710 5712 5716 5724 5731 5735 5743 5751 5760 5769 5778 5787 5795 5801 5806 5811 5815 5821 5825 5829 5831 5835 5838 5838 5836 5838 5841
5738 5733 5730 5727 5725 5721 5722 5716 5721 5712 5711 5707 5702 5700 5698 5695 5692 5692 5693 5694 5695 5697 5699 5699 5701 5706 5713 5718 5722 5731 5741 5749 5757 5767 5777 5785 5790 5797 5802 5808 5813 5818 5821 5826 5828 5830 5831 5832 5832
5728 5725 5721 5717 5715 5713 5710 5709 5711 5706 5699 5696 5694 5690 5686 5683 5682 5681 5682 5684 5685 5686 5687 5689 5690 5692 5697 5702 5708 5713 5721 5729 5738 5749 5759 5767 5775 5783 5791 5796 5802 5807 5812 5816 5819 5822 5823 5823 5825
5719 5716 5713 5711 5705 5704 5700 5699 5698 5697 5691 5686 5681 5677 5673 5671 5668 5667 5668 5670 5673 5674 5676 5677 5680 5681 5683 5688 5693 5699 5704 5710 5719 5729 5739 5748 5754 5765 5776 5785 5792 5797 5803 5808 5810 5812 5813 5814 5814
5709 5707 5704 5699 5698 5697 5694 5690 5687 5683 5682 5676 5671 5669 5664 5660 5654 5653 5652 5655 5655 5660 5663 5666 5669 5670 5671 5674 5679 5683 5687 5693 5701 5710 5719 5730 5741 5750 5759 5771 5778 5785 5793 5797 5801 5801 5803 5806 5806
5701 5699 5696 5691 5689 5684 5680 5679 5677 5672 5667 5663 5658 5654 5651 5649 5646 5640 5636 5638 5640 5642 5646 5651 5654 5658 5661 5663 5666 5669 5673 5677 5685 5694 5701 5711 5721 5732 5742 5755 5765 5774 5781 5786 5788 5790 5793 5795 5797
5695 5691 5688 5684 5679 5675 5673 5672 5669 5666 5659 5652 5647 5640 5633 5629 5627 5625 5620 5616 5617 5623 5627 5632 5638 5643 5647 5651 5654 5656 5660 5664 5670 5677 5686 5696 5709 5714 5724 5741 5751 5760 5767 5772 5773 5777 5781 5785 5786
5690 5685 5681 5677 5673 5666 5660 5663 5662 5654 5646 5640 5632 5626 5618 5612 5608 5605 5603 5601 5601 5602 5608 5613 5620 5627 5632 5636 5641 5645 5649 5653 5656 5662 5673 5683 5693 5703 5714 5727 5736 5745 5752 5755 5761 5768 5772 5776 5778
5683 5678 5673 5667 5666 5659 5653 5647 5647 5642 5634 5626 5618 5610 5601 5593 5586 5583 5583 5583 5583 5585 5589 5594 5599 5607 5615 5620 5628 5634 5638 5642 5645 5652 5660 5669 5681 5691 5701 5714 5723 5731 5737 5743 5753 5756 5763 5767 5770
Wind_Speed
21 21 21 20 20 18 22 27 24 23 20 16 15 14 13 14 6 7 14 18 10 12 14 11 8 7 4 3 2 2 1 1 2 2 2 5 7 6 7 6 6 6 8 9 11 13 13 13 15
24 23 23 23 23 21 18 29 27 27 26 23 21 19 20 16 15 11 11 16 22 20 12 11 9 10 8 5 3 2 2 3 2 1 2 3 5 4 4 3 5 5 4 6 8 10 12 13 15
25 26 26 25 25 24 22 30 30 28 29 29 26 25 22 19 19 18 17 20 16 19 15 10 11 8 7 6 6 5 3 2 2 1 1 2 1 1 1 2 4 4 4 5 6 8 10 12 13
23 24 27 27 27 31 31 29 32 33 33 34 32 29 25 22 20 20 17 18 17 16 20 15 13 10 7 6 8 8 6 4 3 1 2 2 2 2 3 3 4 5 5 5 6 6 8 10 11
22 22 25 23 30 35 33 32 34 36 35 34 36 33 29 23 21 22 23 22 22 18 15 15 14 12 12 10 9 8 7 6 6 5 4 5 6 5 5 6 6 7 8 8 8 9 9 9 11
23 24 25 23 29 31 35 36 37 38 36 35 35 37 35 29 25 23 23 27 28 27 26 23 21 19 19 18 15 11 9 8 7 7 7 8 9 9 8 9 9 9 10 10 9 10 10 10 11
27 29 28 26 31 30 37 35 38 38 38 40 35 36 40 38 32 29 28 28 28 30 30 27 25 26 25 24 22 19 17 15 12 11 10 10 11 11 11 10 10 11 11 12 11 12 12 12 11
33 33 32 32 32 34 34 37 38 39 39 40 40 42 41 38 39 37 34 32 31 31 31 29 26 25 28 29 27 26 22 21 19 16 14 14 13 13 12 12 11 12 12 12 12 13 14 15 14
35 37 37 37 36 41 37 40 40 41 42 43 44 44 43 42 42 42 42 41 37 35 33 33 31 29 28 31 31 29 26 24 22 19 17 16 16 14 13 13 14 14 14 13 14 14 15 16 16
41 42 46 41 42 44 44 45 46 46 46 45 48 48 49 47 47 46 46 46 47 44 40 38 35 33 34 33 34 32 30 27 26 24 22 21 19 18 17 16 14 15 16 15 14 15 16 16 16
36 41 43 42 42 42 45 48 51 50 50 52 52 51 52 50 52 52 52 52 51 51 50 45 41 38 37 36 38 38 35 33 30 31 28 25 23 21 20 19 18 19 18 17 15 15 17 17 17
35 37 38 41 39 41 43 46 47 50 51 51 53 56 57 56 56 56 57 57 56 56 55 54 51 44 41 40 39 40 40 38 35 34 34 31 28 26 25 24 21 21 20 19 18 18 18 19 18
38 40 41 43 43 43 44 45 47 49 52 53 54 55 55 58 59 60 61 61 61 60 60 59 57 56 50 45 42 41 40 42 42 39 39 38 35 33 32 30 27 25 22 20 19 20 21 20 20
41 44 45 47 49 49 49 49 50 50 53 55 58 57 58 58 59 60 60 64 65 64 64 64 63 61 59 54 50 47 44 42 46 45 44 43 42 40 38 37 33 29 27 25 21 20 21 22 22
46 47 50 53 55 55 57 56 56 57 57 58 60 62 62 62 61 63 64 63 64 66 69 69 68 67 64 62 59 55 51 48 46 48 48 48 47 44 42 39 37 35 32 29 26 23 24 25 26
46 49 51 56 55 58 60 59 61 63 62 63 64 65 67 67 65 64 66 67 66 66 67 70 73 72 70 68 66 62 58 54 51 50 52 53 51 50 48 45 41 39 35 33 31 28 29 30 29
45 45 49 51 54 54 58 61 58 62 66 64 63 65 68 71 72 71 70 68 70 71 69 69 71 73 75 73 72 69 64 61 57 54 52 54 55 54 53 49 47 44 39 37 35 34 35 35 33
43 43 44 44 48 50 51 54 55 60 62 62 63 66 66 68 69 74 76 76 75 74 73 72 72 73 74 76 77 75 70 66 64 59 56 53 58 54 54 53 50 49 48 39 38 40 38 39 38
41 42 42 44 48 49 49 52 51 55 57 56 57 58 60 61 64 71 74 81 80 79 76 75 73 73 75 76 75 75 73 67 64 62 61 59 59 59 58 58 54 53 51 46 46 40 38 41 42
39 40 41 44 47 49 48 46 44 41 40 45 47 48 48 49 49 54 67 78 82 82 81 79 78 74 74 76 76 75 73 71 69 66 65 66 64 63 58 61 61 56 53 56 54 43 37 42 45
37 39 38 41 42 43 42 30 35 36 37 38 41 43 43 44 45 44 44 50 63 76 79 80 80 77 75 74 76 79 77 76 75 73 69 67 65 66 64 61 59 58 54 53 56 51 48 44 46
34 37 37 35 36 36 37 33 33 36 38 38 37 38 41 43 45 45 45 40 37 44 58 64 71 75 74 76 77 79 79 78 76 73 71 70 69 68 67 66 61 60 64 52 53 56 47 46 49
35 35 35 36 36 36 31 37 33 42 38 30 31 33 37 41 44 44 42 41 38 36 37 42 52 62 71 73 75 78 80 82 80 77 76 73 74 71 71 64 62 62 55 50 53 51 49 50 56
36 33 34 39 35 34 34 32 31 34 37 33 33 33 35 41 42 42 40 41 41 41 41 44 46 49 54 63 72 73 74 80 80 80 78 76 76 75 73 66 63 60 53 56 55 52 56 58 57
37 35 35 37 36 29 35 34 32 31 31 32 33 34 36 41 44 46 45 41 43 44 43 41 44 46 50 52 56 66 71 70 80 80 80 83 79 78 74 70 68 62 58 57 55 55 53 54 49
39 36 35 39 35 32 34 35 36 35 33 36 36 34 34 38 45 46 48 46 45 46 49 47 43 42 43 44 50 57 63 70 69 75 80 79 80 81 81 75 75 72 70 65 65 63 60 57 54
34 31 32 36 35 36 39 36 35 40 43 43 47 47 43 41 42 48 53 50 49 52 53 53 50 47 48 45 43 42 53 58 68 66 68 78 84 81 88 74 75 72 68 67 68 68 63 59 57
27 28 29 32 35 35 36 37 34 41 45 52 53 55 55 53 51 49 53 58 58 55 57 58 56 54 51 51 48 43 43 47 53 64 65 64 78 83 70 76 74 71 68 68 69 67 62 59 59
25 28 29 31 33 38 41 37 39 43 50 52 50 50 53 50 49 46 47 54 58 58 55 58 58 56 53 52 49 47 44 42 42 51 61 62 63 75 78 70 72 67 70 68 67 61 62 60 57
26 27 29 34 33 37 40 42 44 47 52 50 49 53 51 53 55 53 54 50 47 57 58 57 59 57 58 55 50 50 47 43 38 42 48 56 59 59 70 71 70 73 67 68 64 69 61 56 59
Wind_Direction
216 216 213 210 212 219 234 240 240 246 248 240 231 222 224 232 234 265 244 233 211 168 166 160 172 174 152 132 149 259 283 303 327 4 62 86 97 84 74 56 50 52 46 39 31 26 26 27 26
216 218 219 216 215 216 238 245 244 248 250 247 240 234 226 223 228 247 261 265 241 230 207 160 171 180 169 170 187 249 273 281 282 316 31 92 101 91 76 48 37 37 34 30 24 15 14 16 18
218 220 221 220 219 220 229 239 246 246 255 258 254 248 238 227 231 233 247 259 249 248 218 213 209 182 169 195 201 217 236 278 273 289 72 106 94 38 52 10 8 15 2 4 3 358 3 6 7
215 219 226 223 224 230 228 235 247 249 247 255 258 255 254 244 231 235 235 245 247 250 235 222 215 216 202 199 220 213 218 240 265 232 177 194 221 255 281 296 319 335 340 330 331 336 343 352 354
220 219 226 224 229 233 233 232 241 248 253 251 257 260 257 252 246 236 230 233 240 242 242 238 241 243 238 217 219 218 215 224 230 235 221 210 223 234 260 277 291 307 319 320 314 313 320 331 341
231 229 226 220 232 231 233 234 237 245 251 255 253 259 260 253 246 244 235 232 237 244 249 257 261 255 243 228 218 210 211 213 220 233 229 232 234 239 247 259 273 286 300 308 307 305 306 314 323
235 233 231 224 230 232 236 236 237 242 248 251 253 254 263 263 261 250 246 243 242 245 248 250 254 255 249 236 226 228 234 232 221 226 234 236 243 252 258 264 272 281 289 296 301 302 299 301 307
236 240 238 234 235 239 234 238 239 240 245 250 251 251 255 261 264 263 257 247 245 243 245 251 253 252 256 240 232 232 235 236 234 233 238 241 242 248 257 268 273 277 281 287 294 297 298 296 300
242 246 248 245 240 242 241 243 241 241 242 246 249 251 252 252 255 259 260 260 253 250 245 245 249 248 249 249 238 236 235 238 233 232 235 240 242 245 255 265 273 277 281 287 293 296 300 299 297
242 243 243 242 247 249 251 250 249 248 245 245 246 248 250 250 252 253 254 257 259 258 251 247 246 243 246 245 244 240 237 235 237 229 227 231 238 242 246 255 263 270 276 280 286 294 298 299 300
251 251 254 254 254 254 256 257 256 258 257 253 251 251 252 251 251 252 253 253 254 257 259 255 248 246 244 242 243 244 240 236 235 236 230 229 231 236 241 246 253 260 268 276 283 288 291 295 299
256 257 259 260 257 255 254 256 258 258 259 259 256 254 254 253 252 254 254 255 254 256 257 259 259 251 243 241 241 243 244 240 234 235 235 231 229 234 238 241 247 255 262 267 274 278 284 289 292
259 260 261 263 263 261 260 257 255 258 258 257 257 256 255 254 252 251 251 254 255 254 256 257 257 258 253 243 243 245 246 244 239 236 237 238 233 234 238 239 241 246 253 260 267 274 280 285 291
266 267 267 266 266 265 262 261 260 261 259 259 260 259 257 256 256 252 249 247 250 253 255 257 258 257 257 256 249 249 244 245 246 242 239 240 242 240 240 242 242 244 248 253 259 269 276 282 287
268 268 268 267 268 269 268 267 264 261 261 259 259 259 259 258 255 256 253 249 247 247 249 252 254 256 256 255 255 251 251 248 245 247 247 242 244 245 247 244 252 251 251 254 257 263 272 280 283
267 268 270 269 269 270 270 269 269 268 264 261 258 256 257 257 257 257 256 255 251 248 246 246 248 250 252 253 253 251 251 250 247 246 246 252 247 246 247 248 251 250 252 257 259 262 271 275 279
276 278 277 277 275 275 273 271 277 276 273 270 267 263 259 255 254 254 255 254 254 252 249 246 246 246 247 247 249 250 250 249 248 246 245 245 247 248 249 247 252 254 251 256 263 267 270 272 274
284 284 282 281 280 281 281 282 284 280 279 278 275 270 265 261 258 255 252 252 252 252 251 248 244 243 245 246 246 248 248 248 248 246 246 246 248 253 256 248 251 251 253 259 257 262 264 269 273
286 283 280 279 279 280 281 281 279 279 278 279 276 275 274 267 258 254 251 250 248 249 250 250 246 242 240 242 245 246 247 246 247 247 246 246 246 251 255 255 251 252 256 252 248 251 259 268 272
286 285 283 282 281 281 280 282 276 274 276 274 276 277 278 278 276 266 254 246 245 245 244 245 248 245 241 240 240 242 243 242 241 239 239 244 245 247 249 251 252 252 255 260 264 260 254 262 268
288 284 283 285 283 282 279 274 265 273 278 285 286 280 280 281 278 277 277 267 255 249 246 243 242 246 245 240 238 238 239 239 240 240 236 239 243 244 248 247 246 248 250 255 265 267 257 256 263
291 291 291 291 286 283 286 269 275 275 292 296 289 280 279 276 278 275 269 268 266 258 253 251 247 242 242 243 240 238 237 238 238 238 237 237 239 241 245 246 247 247 249 246 258 261 252 251 256
292 292 292 290 290 288 287 288 278 285 296 297 296 285 273 272 272 273 265 261 259 254 254 254 251 247 243 240 241 240 237 237 236 236 234 233 236 236 242 243 244 247 252 253 249 257 266 267 269
292 289 288 289 294 295 288 290 288 298 298 300 298 290 280 275 276 271 268 263 259 256 252 249 246 249 246 243 241 243 238 238 238 235 234 233 232 235 238 241 244 241 246 252 255 256 258 263 268
293 288 286 290 298 299 296 292 299 300 302 305 305 304 287 277 268 265 261 259 257 254 253 248 248 248 250 246 245 245 243 238 236 238 238 235 231 230 234 238 242 246 247 251 256 258 257 260 265
288 285 285 286 293 291 291 296 301 303 305 299 295 302 294 280 275 269 263 255 247 245 247 247 244 244 248 251 250 248 244 242 239 235 236 235 237 233 234 235 241 246 247 249 250 256 258 259 266
293 285 285 288 292 295 299 301 303 311 311 305 302 302 296 289 279 272 269 262 253 245 238 243 242 246 243 246 251 254 251 248 242 237 235 233 233 232 230 233 237 242 245 247 249 252 258 261 261
300 292 290 290 294 296 299 304 306 313 311 308 306 303 300 296 286 272 261 260 258 250 246 239 237 240 240 241 244 250 252 250 248 241 235 234 232 236 234 231 231 236 242 246 246 249 254 258 261
299 291 291 289 291 295 300 298 311 314 310 308 305 305 300 294 284 275 268 259 254 253 246 246 241 236 236 235 235 239 246 249 245 245 236 233 230 232 234 233 233 236 245 247 251 257 255 257 262
295 292 291 290 293 295 301 303 313 313 308 310 313 310 307 303 298 284 266 265 263 252 249 246 242 235 232 232 233 233 237 242 241 238 239 229 231 230 229 229 232 234 243 247 252 256 250 253 259